N8VIM Weather Reports


time (UTC)temp
C
wind
direction
speed
KPH
gust
KPH
rain 1hr
cm
rain 24hr
cm
rain mn
cm
humidity
%
barometer
mb
20260904052720 19 0 0.0 0.0 361.92 0.00 0.00 97 1011.9
20260904052220 19 0 0.0 0.0 361.92 0.00 0.00 97 1012.0
20260904051733 19 0 0.0 0.0 361.92 0.00 0.00 97 1011.9
20260904051220 19 0 0.0 0.0 361.92 0.00 0.00 97 1012.1
20260904050720 18 0 0.0 0.0 361.92 0.00 0.00 97 1012.0
20260904050220 18 0 0.0 0.0 361.92 0.00 0.00 97 1012.0
20260904044720 18 0 0.0 0.0 361.92 0.00 0.00 97 1011.9
20260904043720 18 0 0.0 0.0 361.92 0.00 0.00 97 1012.0
20260904043220 18 0 0.0 0.0 361.92 0.00 0.00 97 1012.1
20260904042721 18 0 0.0 0.0 361.92 0.00 0.00 97 1012.0
20260904042220 18 0 0.0 0.0 361.92 0.00 0.00 97 1012.1
20260904041721 18 0 0.0 0.0 361.92 0.00 0.00 97 1012.1
20260904041221 18 0 0.0 0.0 361.92 0.00 0.00 97 1012.1
20260904040220 18 0 0.0 0.0 361.92 0.00 0.00 97 1012.1
20260904035720 18 0 0.0 0.0 361.92 0.00 0.00 97 1012.2
20260904035220 18 0 0.0 0.0 361.92 0.00 0.30 97 1012.3
20260904034720 18 0 0.0 0.0 361.92 0.00 0.30 97 1012.2
20260904034220 19 0 0.0 0.0 361.92 0.00 0.30 97 1012.2
20260904033720 18 0 0.0 0.0 361.92 0.00 0.30 96 1012.2
20260904033220 18 0 0.0 0.0 361.92 0.00 0.30 97 1012.3
20260904032720 18 0 0.0 0.0 361.92 0.00 0.30 97 1012.3
20260904032220 18 0 0.0 0.0 361.92 0.00 0.30 96 1012.3
20260904031720 18 0 0.0 0.0 361.92 0.00 0.30 96 1012.3
20260904031220 18 0 0.0 0.0 361.92 0.00 0.30 96 1012.4
20260904030220 19 0 0.0 0.0 361.92 0.00 0.30 96 1012.3
20260904025720 19 0 0.0 0.0 361.92 0.00 0.30 96 1012.3
20260904025219 19 0 0.0 0.0 361.92 0.00 0.30 96 1012.3
20260904024720 19 0 0.0 0.0 361.92 0.00 0.30 96 1012.3
20260904024219 19 0 0.0 0.0 361.92 0.00 0.30 96 1012.2
20260904023719 19 0 0.0 0.0 361.92 0.00 0.30 96 1012.3
20260904023224 19 0 0.0 0.0 361.92 0.00 0.30 97 1012.4
20260904022719 19 0 0.0 0.0 361.92 0.00 0.30 96 1012.5
20260904022219 19 0 0.0 0.0 361.92 0.00 0.30 96 1012.5
20260904021720 20 0 0.0 0.0 361.92 0.00 0.30 96 1012.5
20260904021219 20 0 0.0 0.0 361.92 0.00 0.30 96 1012.5
20260904020720 20 0 0.0 0.0 361.92 0.00 0.30 96 1012.6
20260904020220 20 0 0.0 0.0 361.92 0.00 0.30 96 1012.7
20260904015219 20 0 0.0 0.0 361.92 0.00 0.30 96 1012.7
20260904014720 20 0 0.0 0.0 361.92 0.00 0.30 96 1012.8
20260904014220 20 0 0.0 0.0 361.92 0.00 0.30 95 1012.9
20260904013719 20 0 0.0 0.0 361.92 0.00 0.30 95 1012.8
20260904013220 20 0 0.0 0.0 361.92 0.00 0.30 95 1012.8
20260904012719 20 0 0.0 0.0 361.92 0.00 0.30 95 1012.9
20260904012219 20 0 0.0 0.0 361.92 0.00 0.30 95 1012.8
20260904010719 20 0 0.0 0.0 361.92 0.00 0.30 95 1012.8
20260904010226 20 0 0.0 0.0 361.92 0.00 0.30 95 1012.9
20260904005719 20 0 0.0 0.0 361.92 0.00 0.30 95 1012.9
20260904005219 20 0 0.0 0.0 361.92 0.00 0.30 94 1012.9
20260904004720 20 0 0.0 0.0 361.92 0.00 0.30 94 1012.8
20260904004220 20 0 0.0 0.0 361.92 0.00 0.30 92 1012.8
20260904003719 21 0 0.0 0.0 361.92 0.00 0.30 91 1012.7
20260904003220 21 0 0.0 0.0 361.92 0.00 0.30 92 1012.6
20260904002219 21 0 0.0 0.0 361.92 0.00 0.30 90 1012.4
20260904001720 21 0 0.0 0.0 361.92 0.00 0.30 90 1012.3
20260904001219 21 0 0.0 0.0 361.92 0.00 0.30 90 1012.3
20260904000220 21 0 0.0 0.0 361.92 0.00 0.30 89 1012.0
20260903235719 21 0 0.0 0.0 361.92 0.00 0.30 89 1011.9
20260903234720 21 0 0.0 0.0 361.92 0.00 0.30 88 1012.3
20260903234219 21 0 0.0 0.0 361.92 0.00 0.30 88 1012.3
20260903233720 21 0 0.0 0.0 361.92 0.00 0.30 87 1012.1
20260903233222 21 0 0.0 0.0 361.92 0.00 0.30 87 1012.1
20260903232719 22 0 0.0 0.0 361.92 0.00 0.30 86 1011.9
20260903231720 22 0 0.0 0.0 361.92 0.00 0.30 85 1012.1
20260903230719 22 0 0.0 0.0 361.92 0.00 0.30 84 1012.2
20260903230220 22 0 0.0 0.0 361.92 0.00 0.30 83 1012.3
20260903225719 22 0 0.0 0.0 361.92 0.00 0.30 82 1012.3
20260903225219 23 0 0.0 0.0 361.92 0.00 0.30 82 1012.2
20260903224753 23 0 0.0 0.0 361.92 0.00 0.30 81 1012.2
20260903224720 23 0 0.0 0.0 361.92 0.00 0.30 81 1012.2
20260903224219 23 0 0.0 0.0 361.92 0.00 0.30 80 1012.1
20260903223220 23 0 0.0 0.0 361.92 0.00 0.30 78 1012.1
20260903222719 24 0 0.0 0.0 361.92 0.00 0.30 77 1012.2
20260903221720 25 0 0.0 0.0 361.92 0.00 0.30 74 1012.4
20260903220719 25 0 0.0 0.0 361.92 0.00 0.30 73 1012.7
20260903220220 25 0 0.0 0.0 361.92 0.00 0.30 73 1012.7
20260903215219 26 0 0.0 0.0 361.92 0.00 0.30 72 1012.5
20260903214720 25 0 0.0 0.0 361.92 0.00 0.30 72 1012.6
20260903214219 25 0 0.0 0.0 361.92 0.00 0.30 74 1012.6
20260903213719 25 0 0.0 0.0 361.92 0.00 0.30 75 1012.6
20260903213220 25 0 0.0 0.0 361.92 0.00 0.30 76 1012.5
20260903212719 24 0 0.0 0.0 361.92 0.00 0.30 76 1012.5
20260903212219 24 0 0.0 0.0 361.92 0.00 0.30 77 1012.5
20260903211720 24 0 0.0 0.0 361.92 0.00 0.30 76 1012.5
20260903211219 24 0 0.0 0.0 361.92 0.00 0.30 76 1012.6
20260903210719 24 0 0.0 0.0 361.92 0.00 0.30 76 1012.7
20260903210220 24 0 0.0 0.0 361.92 0.00 0.30 75 1012.7
20260903205719 24 63 0.0 0.0 361.92 0.00 0.30 75 1012.6
20260903204721 24 0 0.0 0.0 361.92 0.00 0.30 75 1012.5
20260903204219 25 0 0.0 0.0 361.92 0.00 0.30 76 1012.6
20260903203719 25 0 0.0 0.0 361.92 0.00 0.30 75 1012.6
20260903203219 24 0 0.0 0.0 361.92 0.00 0.30 75 1012.7
20260903202719 25 0 0.0 0.0 361.92 0.00 0.30 75 1012.7
20260903201719 24 0 0.0 0.0 361.92 0.00 0.30 76 1012.7
20260903201219 23 0 0.0 0.0 361.92 0.00 0.30 77 1012.7
20260903200719 23 0 0.0 0.0 361.92 0.00 0.30 76 1012.7
20260903200222 23 0 0.0 0.0 361.92 0.00 0.30 75 1012.9
20260903195719 23 0 0.0 0.0 361.92 0.00 0.30 75 1012.9
20260903195219 23 0 0.0 0.0 361.92 0.00 0.30 75 1012.9
20260903194719 23 0 0.0 0.0 361.92 0.00 0.30 74 1013.0
20260903194219 23 62 0.0 3.2 361.92 0.00 0.30 75 1013.1
20260903193219 23 210 0.0 0.0 361.92 0.00 0.30 76 1013.2
20260903192719 23 231 0.0 1.6 361.92 0.00 0.30 75 1013.4
20260903191722 24 4 0.0 3.2 361.92 0.00 0.30 73 1013.4
20260903191219 24 34 0.0 3.2 361.92 0.00 0.30 72 1013.5
20260903190719 24 113 0.0 6.4 361.92 0.00 0.30 73 1013.4
20260903190219 23 32 3.2 3.2 361.92 0.00 0.30 75 1013.4
20260903184721 23 63 0.0 3.2 361.92 0.00 0.30 75 1013.5
20260903183719 23 98 0.0 1.6 361.92 0.00 0.30 75 1013.7
20260903183219 23 98 0.0 3.2 361.92 0.00 0.30 78 1013.7
20260903182719 23 48 0.0 4.8 361.92 0.00 0.30 78 1013.8
20260903181720 22 0 0.0 0.0 361.92 0.00 0.30 79 1013.7
20260903180719 22 148 3.2 4.8 361.92 0.00 0.30 79 1013.9
20260903180220 22 122 1.6 6.4 361.92 0.00 0.30 80 1014.0
20260903175734 22 110 3.2 3.2 361.92 0.00 0.30 83 1014.0
20260903175219 22 76 0.0 1.6 361.92 0.00 0.30 83 1013.9
20260903174719 21 0 0.0 0.0 361.92 0.00 0.30 83 1014.1
20260903173719 21 103 0.0 1.6 361.92 0.00 0.30 83 1014.3
20260903173219 21 0 0.0 0.0 361.92 0.00 0.30 83 1014.3
20260903172719 21 114 0.0 4.8 361.92 0.00 0.30 83 1014.3
20260903171719 21 32 1.6 1.6 361.92 0.00 0.30 84 1014.4
20260903170219 21 98 1.6 4.8 361.92 0.00 0.30 84 1014.3
20260903165719 21 132 0.0 1.6 361.92 0.00 0.30 84 1014.1
20260903164721 21 0 0.0 0.0 361.92 0.00 0.30 86 1014.1
20260903163719 21 134 0.0 1.6 361.92 0.00 0.30 87 1014.2
20260903163224 21 30 0.0 3.2 361.92 0.00 0.30 88 1014.1
20260903162722 20 158 0.0 6.4 361.92 0.00 0.30 89 1014.2
20260903161719 20 111 0.0 6.4 361.92 0.00 0.30 86 1014.3
20260903161218 20 0 0.0 0.0 361.92 0.00 0.30 88 1014.3
20260903160718 20 219 0.0 1.6 361.92 0.00 0.30 87 1014.3
20260903160219 20 307 0.0 3.2 361.92 0.00 0.30 89 1014.4
20260903155718 20 113 0.0 6.4 361.92 0.00 0.30 91 1014.4
20260903155218 20 63 0.0 3.2 361.92 0.00 0.30 92 1014.3
20260903154721 20 0 0.0 0.0 361.92 0.00 0.30 92 1014.3
20260903154218 20 62 0.0 3.2 361.92 0.00 0.30 92 1014.4
20260903153718 20 170 0.0 3.2 361.92 0.00 0.30 93 1014.5
20260903153224 19 0 0.0 0.0 361.92 0.00 0.30 94 1014.6
20260903152718 19 0 0.0 0.0 361.92 0.00 0.30 94 1014.6
20260903151719 19 0 0.0 0.0 361.92 0.00 0.30 95 1014.9
20260903151218 18 0 0.0 0.0 361.92 0.00 0.30 95 1015.0
20260903150719 18 0 0.0 0.0 361.92 0.00 0.30 95 1014.9
20260903150226 18 0 0.0 0.0 361.92 0.00 0.30 95 1015.0
20260903145718 18 0 0.0 0.0 361.92 0.00 0.30 95 1014.8
20260903145218 18 0 0.0 0.0 361.92 0.00 0.30 95 1014.9
20260903144719 18 0 0.0 0.0 361.92 0.00 0.30 94 1015.0
20260903144218 18 0 0.0 0.0 361.92 0.00 0.30 95 1015.1
20260903143718 18 0 0.0 0.0 361.92 0.00 0.30 95 1015.1
20260903143221 18 0 0.0 0.0 361.92 0.00 0.30 95 1015.1
20260903141719 18 0 0.0 0.0 361.92 0.00 0.30 96 1015.1
20260903141218 18 0 0.0 0.0 361.92 0.00 0.30 96 1015.1
20260903140226 17 0 0.0 0.0 361.92 0.00 0.30 96 1015.3
20260903135718 17 0 0.0 0.0 361.92 0.00 0.30 96 1015.4
20260903135218 17 0 0.0 0.0 361.92 0.00 0.30 96 1015.5
20260903134719 17 0 0.0 0.0 361.92 0.00 0.30 96 1015.7
20260903134218 17 0 0.0 0.0 361.92 0.00 0.30 96 1015.5
20260903133718 17 0 0.0 0.0 361.92 0.00 0.30 96 1015.5
20260903133219 17 0 0.0 0.0 361.92 0.00 0.30 96 1015.4
20260903132718 17 0 0.0 0.0 361.92 0.00 0.30 96 1015.5
20260903132218 17 0 0.0 0.0 361.92 0.00 0.30 96 1015.4
20260903131719 17 0 0.0 0.0 361.92 0.00 0.30 96 1015.4
20260903130718 17 0 0.0 0.0 361.92 0.00 0.30 96 1015.3
20260903125718 17 0 0.0 0.0 361.92 0.00 0.30 97 1015.4
20260903125218 17 0 0.0 0.0 361.92 0.00 0.30 97 1015.5
20260903124719 17 0 0.0 0.0 361.92 0.00 0.30 97 1015.5
20260903124218 17 0 0.0 0.0 361.92 0.00 0.30 97 1015.5
20260903123720 17 0 0.0 0.0 361.92 0.00 0.30 96 1015.7
20260903123219 17 0 0.0 0.0 361.92 0.00 0.30 96 1015.8
20260903122219 17 0 0.0 0.0 361.92 0.00 0.30 96 1016.2
20260903121719 17 0 0.0 0.0 361.92 0.00 0.30 96 1016.1
20260903121218 17 0 0.0 0.0 361.92 0.00 0.30 96 1016.1
20260903120718 17 0 0.0 0.0 361.92 0.00 0.30 96 1016.1
20260903120219 17 0 0.0 0.0 361.92 0.00 0.30 96 1016.0
20260903115722 17 0 0.0 0.0 361.92 0.00 0.30 96 1016.1
20260903115218 17 0 0.0 0.0 361.92 0.00 0.30 96 1016.1
20260903114719 17 0 0.0 0.0 361.92 0.00 0.30 96 1016.3
20260903113219 16 0 0.0 0.0 361.92 0.00 0.30 96 1016.3
20260903112718 16 0 0.0 0.0 361.92 0.00 0.30 96 1016.3
20260903112218 16 0 0.0 0.0 361.92 0.00 0.30 96 1016.4
20260903111719 16 0 0.0 0.0 361.92 0.00 0.30 96 1016.4
20260903111218 16 0 0.0 0.0 361.92 0.00 0.30 96 1016.3
20260903110718 16 0 0.0 0.0 361.92 0.00 0.30 96 1016.3
20260903110219 16 0 0.0 0.0 361.92 0.00 0.30 96 1016.2
20260903105718 16 0 0.0 0.0 361.92 0.00 0.30 96 1016.2
20260903105219 16 0 0.0 0.0 361.92 0.00 0.30 96 1016.3
20260903104218 16 0 0.0 0.0 361.92 0.00 0.30 96 1016.2
20260903103221 16 0 0.0 0.0 361.92 0.00 0.30 96 1016.3
20260903102718 16 0 0.0 0.0 361.92 0.00 0.30 96 1016.3
20260903101719 16 0 0.0 0.0 361.92 0.00 0.30 96 1016.3
20260903101218 16 0 0.0 0.0 361.92 0.00 0.30 95 1016.4
20260903100224 16 0 0.0 0.0 361.92 0.00 0.30 95 1016.3
20260903095718 16 0 0.0 0.0 361.92 0.00 0.30 95 1016.2
20260903095218 16 0 0.0 0.0 361.90 0.00 0.28 95 1016.2
20260903094719 16 0 0.0 0.0 361.90 0.00 0.28 93 1016.2
20260903094218 16 0 0.0 0.0 361.90 0.00 0.28 94 1016.3
20260903093718 16 0 0.0 0.0 361.90 0.00 0.28 94 1016.4
20260903093221 16 0 0.0 0.0 361.87 0.00 0.25 94 1016.4
20260903092718 16 0 0.0 0.0 361.87 0.00 0.25 94 1016.4
20260903092218 16 0 0.0 0.0 361.87 0.00 0.25 94 1016.4
20260903091719 16 0 0.0 0.0 361.85 0.00 0.23 93 1016.7
20260903090718 16 0 0.0 0.0 361.85 0.00 0.23 93 1016.8
20260903090221 17 184 0.0 3.2 361.80 0.00 0.18 92 1016.8
20260903085718 17 204 1.6 3.2 361.67 0.00 0.05 92 1016.8
20260903085218 17 101 0.0 1.6 361.67 0.00 0.05 91 1016.6
20260903084719 17 114 0.0 1.6 361.65 0.00 0.03 91 1016.7
20260903084218 17 248 0.0 1.6 361.65 0.00 0.03 91 1016.8
20260903083718 17 167 0.0 6.4 361.65 0.00 0.03 90 1016.7
20260903083218 17 30 3.2 1.6 361.65 0.00 0.03 90 1016.7
20260903082718 17 165 0.0 4.8 361.65 0.00 0.03 90 1016.6
20260903081718 17 266 0.0 3.2 361.65 0.00 0.03 89 1016.8
20260903081218 17 148 1.6 3.2 361.65 0.00 0.03 88 1017.0
20260903080223 17 293 0.0 3.2 361.65 0.00 0.03 87 1016.8
20260903074718 17 203 0.0 4.8 361.62 0.00 0.00 85 1017.0
20260903074218 17 174 3.2 4.8 361.62 0.00 0.00 85 1017.0
20260903073718 17 174 0.0 4.8 361.62 0.00 0.00 85 1016.9
20260903073218 17 134 3.2 3.2 361.62 0.00 0.00 85 1016.8
20260903072718 17 0 0.0 0.0 361.62 0.00 0.00 85 1017.0
20260903072218 17 0 0.0 0.0 361.62 0.00 0.00 85 1017.1
20260903071719 17 122 0.0 3.2 361.62 0.00 0.00 84 1017.1
20260903070219 17 0 0.0 0.0 361.62 0.00 0.00 84 1017.0
20260903064719 17 0 0.0 0.0 361.62 0.00 0.00 84 1017.4
20260903063718 17 0 0.0 0.0 361.62 0.00 0.00 83 1017.8
20260903063221 17 162 0.0 8.0 361.62 0.00 0.00 84 1017.9
20260903061722 17 0 0.0 0.0 361.62 0.00 0.00 84 1018.3
20260903060218 17 0 0.0 0.0 361.62 0.00 0.00 85 1018.6
20260903054722 17 239 0.0 1.6 361.62 0.00 0.00 85 1019.0
20260903054217 17 153 0.0 9.7 361.62 0.00 0.00 85 1019.0